Stündliche Wetter Barnala

Heute, 31 Oktober, Samstag

Zeit Temperatur Niederschläge Wind Luftdruck Luftfeuchtigkeit
00:00 +21°C° 0 mm 1 m/S 739 mmHg 23%
01:00 +20°C° 0 mm 1 m/S 739 mmHg 24%
02:00 +20°C° 0 mm 1 m/S 739 mmHg 25%
03:00 +19°C° 0 mm 1 m/S 739 mmHg 26%
04:00 +19°C° 0 mm 1 m/S 739 mmHg 26%
05:00 +18°C° 0 mm 1 m/S 739 mmHg 30%
06:00 +19°C° 0 mm 2 m/S 739 mmHg 27%
07:00 +21°C° 0 mm 2 m/S 740 mmHg 25%
08:00 +23°C° 0 mm 2 m/S 741 mmHg 23%
09:00 +26°C° 0 mm 2 m/S 741 mmHg 18%
10:00 +30°C° 0 mm 3 m/S 741 mmHg 13%
11:00 +34°C° 0 mm 4 m/S 741 mmHg 9%
12:00 +34°C° 0 mm 4 m/S 740 mmHg 7%
13:00 +35°C° 0 mm 4 m/S 739 mmHg 6%
14:00 +35°C° 0 mm 4 m/S 739 mmHg 5%
15:00 +33°C° 0 mm 3 m/S 738 mmHg 5%
16:00 +30°C° 0 mm 3 m/S 738 mmHg 6%
17:00 +28°C° 0 mm 2 m/S 738 mmHg 7%
18:00 +26°C° 0 mm 2 m/S 738 mmHg 7%
19:00 +24°C° 0 mm 2 m/S 738 mmHg 8%
20:00 +21°C° 0 mm 2 m/S 739 mmHg 9%
21:00 +21°C° 0 mm 2 m/S 739 mmHg 9%
22:00 +20°C° 0 mm 2 m/S 739 mmHg 10%
23:00 +19°C° 0 mm 2 m/S 739 mmHg 10%

Morgen, 1 November, Sonntag

Zeit Temperatur Niederschläge Wind Luftdruck Luftfeuchtigkeit
00:00 +20°C° 0 mm 1 m/S 739 mmHg 11%
01:00 +19°C° 0 mm 1 m/S 739 mmHg 12%
02:00 +18°C° 0 mm 1 m/S 739 mmHg 13%
03:00 +18°C° 0 mm 1 m/S 739 mmHg 13%
04:00 +16°C° 0 mm 1 m/S 738 mmHg 14%
05:00 +16°C° 0 mm 1 m/S 738 mmHg 15%
06:00 +19°C° 0 mm 1 m/S 739 mmHg 14%
07:00 +20°C° 0 mm 1 m/S 740 mmHg 13%
08:00 +22°C° 0 mm 1 m/S 741 mmHg 12%
09:00 +25°C° 0 mm 2 m/S 740 mmHg 11%
10:00 +28°C° 0 mm 2 m/S 740 mmHg 9%
11:00 +31°C° 0 mm 3 m/S 740 mmHg 8%
12:00 +33°C° 0 mm 3 m/S 739 mmHg 7%
13:00 +34°C° 0 mm 3 m/S 739 mmHg 6%
14:00 +35°C° 0 mm 3 m/S 738 mmHg 5%
15:00 +33°C° 0 mm 3 m/S 738 mmHg 6%
16:00 +30°C° 0 mm 2 m/S 738 mmHg 7%
17:00 +27°C° 0 mm 2 m/S 737 mmHg 8%
18:00 +26°C° 0 mm 2 m/S 738 mmHg 9%
19:00 +24°C° 0 mm 1 m/S 738 mmHg 10%
20:00 +23°C° 0 mm 1 m/S 739 mmHg 11%
21:00 +22°C° 0 mm 1 m/S 739 mmHg 11%
22:00 +21°C° 0 mm 1 m/S 739 mmHg 12%
23:00 +20°C° 0 mm 1 m/S 739 mmHg 12%

übermorgen, 2 November, Montag

Zeit Temperatur Niederschläge Wind Luftdruck Luftfeuchtigkeit
00:00 +20°C° 0 mm 1 m/S 739 mmHg 12%
01:00 +20°C° 0 mm 1 m/S 738 mmHg 13%
02:00 +19°C° 0 mm 1 m/S 738 mmHg 13%
03:00 +18°C° 0 mm 1 m/S 738 mmHg 14%
04:00 +18°C° 0 mm 1 m/S 738 mmHg 15%
05:00 +15°C° 0 mm 0 m/S 738 mmHg 16%
06:00 +17°C° 0 mm 0 m/S 739 mmHg 15%
07:00 +19°C° 0 mm 0 m/S 739 mmHg 13%
08:00 +21°C° 0 mm 0 m/S 740 mmHg 12%
09:00 +24°C° 0 mm 0 m/S 740 mmHg 11%
10:00 +29°C° 0 mm 1 m/S 740 mmHg 9%
11:00 +33°C° 0 mm 1 m/S 741 mmHg 7%
12:00 +33°C° 0 mm 1 m/S 740 mmHg 7%
13:00 +34°C° 0 mm 1 m/S 739 mmHg 6%
14:00 +34°C° 0 mm 1 m/S 739 mmHg 5%
15:00 +32°C° 0 mm 1 m/S 739 mmHg 6%
16:00 +29°C° 0 mm 1 m/S 738 mmHg 7%
17:00 +25°C° 0 mm 0 m/S 738 mmHg 8%
18:00 +23°C° 0 mm 0 m/S 738 mmHg 9%
19:00 +22°C° 0 mm 0 m/S 739 mmHg 10%
20:00 +20°C° 0 mm 0 m/S 739 mmHg 10%
21:00 +20°C° 0 mm 0 m/S 739 mmHg 11%
22:00 +19°C° 0 mm 0 m/S 739 mmHg 11%
23:00 +18°C° 0 mm 0 m/S 739 mmHg 12%

3 November, Dienstag

Zeit Temperatur Niederschläge Wind Luftdruck Luftfeuchtigkeit
00:00 +18°C° 0 mm 0 m/S 739 mmHg 12%
01:00 +17°C° 0 mm 0 m/S 739 mmHg 13%
02:00 +17°C° 0 mm 0 m/S 739 mmHg 13%
03:00 +16°C° 0 mm 0 m/S 739 mmHg 14%
04:00 +16°C° 0 mm 0 m/S 739 mmHg 14%
05:00 +16°C° 0 mm 0 m/S 738 mmHg 15%
06:00 +17°C° 0 mm 0 m/S 739 mmHg 14%
07:00 +19°C° 0 mm 0 m/S 740 mmHg 13%
08:00 +21°C° 0 mm 0 m/S 740 mmHg 12%
09:00 +24°C° 0 mm 0 m/S 740 mmHg 10%
10:00 +29°C° 0 mm 1 m/S 740 mmHg 9%
11:00 +33°C° 0 mm 1 m/S 741 mmHg 7%
12:00 +33°C° 0 mm 1 m/S 740 mmHg 7%
13:00 +32°C° 0 mm 0 m/S 739 mmHg 7%
14:00 +33°C° 0 mm 0 m/S 739 mmHg 7%
15:00 +30°C° 0 mm 0 m/S 738 mmHg 9%
16:00 +28°C° 0 mm 0 m/S 738 mmHg 10%
17:00 +25°C° 0 mm 0 m/S 738 mmHg 11%
18:00 +24°C° 0 mm 0 m/S 738 mmHg 12%
19:00 +23°C° 0 mm 0 m/S 738 mmHg 13%
20:00 +21°C° 0 mm 0 m/S 739 mmHg 13%
21:00 +21°C° 0 mm 0 m/S 738 mmHg 14%
22:00 +20°C° 0 mm 0 m/S 738 mmHg 14%
23:00 +20°C° 0 mm 0 m/S 738 mmHg 15%

4 November, Mittwoch

Zeit Temperatur Niederschläge Wind Luftdruck Luftfeuchtigkeit
00:00 +19°C° 0 mm 0 m/S 738 mmHg 15%
01:00 +21°C° 0 mm 1 m/S 738 mmHg 16%
02:00 +20°C° 0 mm 1 m/S 738 mmHg 16%
03:00 +20°C° 0 mm 1 m/S 738 mmHg 17%
04:00 +20°C° 0 mm 1 m/S 738 mmHg 17%
05:00 +17°C° 0 mm 0 m/S 737 mmHg 18%
06:00 +21°C° 0 mm 1 m/S 738 mmHg 17%
07:00 +22°C° 0 mm 1 m/S 739 mmHg 16%
08:00 +24°C° 0 mm 1 m/S 739 mmHg 16%
09:00 +27°C° 0 mm 1 m/S 739 mmHg 13%
10:00 +30°C° 0 mm 1 m/S 739 mmHg 11%
11:00 +33°C° 0 mm 1 m/S 739 mmHg 8%
12:00 +34°C° 0 mm 1 m/S 739 mmHg 7%
13:00 +35°C° 0 mm 2 m/S 738 mmHg 6%
14:00 +36°C° 0 mm 2 m/S 738 mmHg 6%
15:00 +34°C° 0 mm 2 m/S 737 mmHg 6%
16:00 +31°C° 0 mm 1 m/S 737 mmHg 7%
17:00 +28°C° 0 mm 1 m/S 737 mmHg 8%
18:00 +26°C° 0 mm 1 m/S 737 mmHg 10%
19:00 +22°C° 0 mm 0 m/S 737 mmHg 11%
20:00 +21°C° 0 mm 0 m/S 738 mmHg 13%
21:00 +20°C° 0 mm 0 m/S 738 mmHg 13%
22:00 +20°C° 0 mm 0 m/S 738 mmHg 14%
23:00 +19°C° 0 mm 0 m/S 738 mmHg 14%

5 November, Donnerstag

Zeit Temperatur Niederschläge Wind Luftdruck Luftfeuchtigkeit
00:00 +19°C° 0 mm 0 m/S 738 mmHg 15%
01:00 +18°C° 0 mm 0 m/S 738 mmHg 16%
02:00 +18°C° 0 mm 0 m/S 737 mmHg 16%
03:00 +19°C° 0 mm 1 m/S 737 mmHg 17%
04:00 +19°C° 0 mm 1 m/S 737 mmHg 17%
05:00 +18°C° 0 mm 1 m/S 737 mmHg 17%
06:00 +20°C° 0 mm 1 m/S 738 mmHg 16%
07:00 +21°C° 0 mm 1 m/S 738 mmHg 15%
08:00 +22°C° 0 mm 1 m/S 739 mmHg 14%
09:00 +26°C° 0 mm 1 m/S 739 mmHg 11%
10:00 +29°C° 0 mm 1 m/S 739 mmHg 9%
11:00 +32°C° 0 mm 2 m/S 739 mmHg 7%
12:00 +34°C° 0 mm 2 m/S 739 mmHg 6%
13:00 +35°C° 0 mm 2 m/S 738 mmHg 5%
14:00 +36°C° 0 mm 2 m/S 738 mmHg 5%
15:00 +32°C° 0 mm 2 m/S 737 mmHg 5%
16:00 +30°C° 0 mm 1 m/S 737 mmHg 6%
17:00 +28°C° 0 mm 1 m/S 737 mmHg 7%
18:00 +26°C° 0 mm 1 m/S 738 mmHg 8%
19:00 +24°C° 0 mm 1 m/S 738 mmHg 9%
20:00 +23°C° 0 mm 1 m/S 738 mmHg 10%
21:00 +22°C° 0 mm 1 m/S 738 mmHg 11%
22:00 +22°C° 0 mm 1 m/S 739 mmHg 12%
23:00 +21°C° 0 mm 1 m/S 739 mmHg 13%
Mehr zeigen